STARLINK-35440

Last updated on Sun Dec 07 2025 00:02:05 GMT+0000 (Coordinated Universal Time)

1 66345U 25253AC 25340.58335648 .00063993 00000+0 15283-2 0 9997 2 66345 43.0007 20.8681 0000923 252.4359 180.0714 15.40662587 5942
UTC large
Height (km)
Speed (km/s)
/
Latitude / Longitude
Inclination (degrees)
Orbital Period (minutes)
Azimuth
Elevation
Range (km)
Doppler Factor

Next 0 passes for location: London (51.5072 / 0.1276)

Sorry there are no passes over London.